Location: Rounton
(54.4000°N, 1.3500°W)
Time: 02:15:51
(UTC+00:00)

SR - Pass Details

Date: 05 December 2021
Orbit: 582 x 872 km, 66.7° (Epoch: 26 January)

Event Time Altitude Azimuth Distance (km) Brightness Sun altitude
Exits shadow 07:23:14 - 316° (NW) 2,167 ? -6.3°
Reaches altitude 10° 07:23:50 10° 316° (NW) 1,920 ? -6.2°
Maximum altitude 07:28:06 73° 233° (SW) 631 ? -5.7°
Drops below altitude 10° 07:32:33 10° 148° (SSE) 1,994 ? -5.2°
Sets 07:34:53 0° 146° (SSE) 2,936 ? -4.9°
